Kasota, MN

2:49 AM CDT on September 27, 2016 (GMT -0500)
Mankato Regional

Weather History for KMKT - December, 2012

Change the Weather History Date:

Thursday, December 13, 2012

  Actual Average Record
Temperature  
Mean Temperature 26 °F -  
Max Temperature 37 °F 28 °F 48 °F (1998)
Min Temperature 15 °F 15 °F -14 °F (2010)
Degree Days  
Heating Degree Days 39    
Moisture  
Dew Point 16 °F    
Average Humidity 69    
Maximum Humidity 86    
Minimum Humidity 48    
Precipitation  
Precipitation 0.00 in - - ()
Sea Level Pressure  
Sea Level Pressure 29.99 in    
Wind  
Wind Speed 9 mph (SW)    
Max Wind Speed 16 mph    
Max Gust Speed 20 mph    
Visibility 9 miles    
Events      
Averages and records for this station are not official NWS values.
T = Trace of Precipitation, MM = Missing Value Source: NWS Daily Summary

Daily Weather History Graph

Daily Weather History Graph

Search for Another Location

Airport or City:

Trip Planner

Search our weather history database for the weather conditions in past years. The results will help you decide how hot, cold, wet, or windy it might be!

Date:

Astronomy

Dec. 13, 2012 Rise Set
Actual Time 7:43 AM CST 4:37 PM CST
Civil Twilight 7:09 AM CST 5:10 PM CST
Nautical Twilight 6:33 AM CST 5:46 PM CST
Astronomical Twilight 5:58 AM CST 6:22 PM CST
Moon 7:51 AM CST (12/13) 5:21 PM CST (12/13)
Length of Visible Light 10h 00m
Length of Day
8h 53m
New Moon, 0% of the Moon is Illuminated
Dec 13
New Moon
Dec 19
First Quarter
Dec 28
Full
Jan 4
Last Quarter
Jan 11
New

Hourly Weather History & Observations

Time (CST) Temp. Windchill Dew Point Humidity Pressure Visibility Wind Dir Wind Speed Gust Speed Precip Events Conditions
12:15 AM 37.4 °F 28.2 °F 19.4 °F 48% 29.91 in 10.0 mi South 16.1 mph - N/A   Clear
12:35 AM 37.4 °F 28.5 °F 21.2 °F 52% 29.92 in 10.0 mi South 15.0 mph - N/A   Clear
12:55 AM 37.4 °F 29.3 °F 19.4 °F 48% 29.91 in 10.0 mi South 12.7 mph 19.6 mph N/A   Clear
1:15 AM 35.6 °F 27.1 °F 19.4 °F 52% 29.90 in 10.0 mi South 12.7 mph 19.6 mph N/A   Clear
1:35 AM 35.6 °F 27.1 °F 17.6 °F 48% 29.90 in 10.0 mi South 12.7 mph 17.3 mph N/A   Clear
1:55 AM 35.6 °F 27.5 °F 19.4 °F 52% 29.91 in 10.0 mi South 11.5 mph 17.3 mph N/A   Clear
2:15 AM 35.6 °F 29.2 °F 17.6 °F 48% 29.91 in 10.0 mi South 8.1 mph - N/A   Clear
2:35 AM 33.8 °F 26.4 °F 17.6 °F 52% 29.91 in 10.0 mi South 9.2 mph - N/A   Clear
2:55 AM 32.0 °F 23.6 °F 17.6 °F 55% 29.91 in 10.0 mi South 10.4 mph - N/A   Clear
3:15 AM 30.2 °F 20.8 °F 17.6 °F 60% 29.90 in 10.0 mi South 11.5 mph - N/A   Clear
3:35 AM 32.0 °F 24.8 °F 17.6 °F 55% 29.91 in 10.0 mi South 8.1 mph - N/A   Clear
3:55 AM 30.2 °F 25.4 °F 17.6 °F 60% 29.91 in 10.0 mi SSE 4.6 mph - N/A   Clear
4:15 AM 30.2 °F 21.9 °F 17.6 °F 60% 29.90 in 10.0 mi South 9.2 mph - N/A   Clear
4:35 AM 30.2 °F 21.9 °F 17.6 °F 60% 29.90 in 10.0 mi South 9.2 mph - N/A   Clear
4:55 AM 30.2 °F 24.3 °F 17.6 °F 60% 29.90 in 10.0 mi South 5.8 mph - N/A   Clear
5:15 AM 30.2 °F 23.4 °F 17.6 °F 60% 29.91 in 10.0 mi South 6.9 mph - N/A   Clear
5:35 AM 30.2 °F 22.6 °F 17.6 °F 60% 29.91 in 10.0 mi South 8.1 mph - N/A   Clear
5:55 AM 30.2 °F 24.3 °F 15.8 °F 55% 29.92 in 10.0 mi South 5.8 mph - N/A   Clear
6:15 AM 30.2 °F 23.4 °F 17.6 °F 60% 29.92 in 10.0 mi South 6.9 mph - N/A   Clear
6:35 AM 30.2 °F 21.9 °F 17.6 °F 60% 29.92 in 10.0 mi South 9.2 mph - N/A   Clear
6:55 AM 28.4 °F 20.4 °F 17.6 °F 64% 29.93 in 10.0 mi South 8.1 mph - N/A   Clear
7:15 AM 28.4 °F 22.2 °F 15.8 °F 59% 29.93 in 10.0 mi South 5.8 mph - N/A   Clear
7:35 AM 28.4 °F 21.2 °F 17.6 °F 64% 29.93 in 10.0 mi South 6.9 mph - N/A   Clear
7:55 AM 28.4 °F 22.2 °F 17.6 °F 64% 29.94 in 10.0 mi South 5.8 mph - N/A   Clear
8:15 AM 28.4 °F 21.2 °F 15.8 °F 59% 29.94 in 10.0 mi South 6.9 mph - N/A   Clear
8:35 AM 26.6 °F 18.2 °F 17.6 °F 69% 29.95 in 10.0 mi South 8.1 mph - N/A   Clear
8:55 AM 28.4 °F 21.2 °F 17.6 °F 64% 29.95 in 10.0 mi SSW 6.9 mph - N/A   Clear
9:15 AM 28.4 °F 21.2 °F 17.6 °F 64% 29.96 in 10.0 mi SSW 6.9 mph - N/A   Clear
9:35 AM 26.6 °F 19.1 °F 17.6 °F 69% 29.97 in 10.0 mi WSW 6.9 mph - N/A   Clear
9:55 AM 24.8 °F 14.6 °F 17.6 °F 74% 29.98 in 10.0 mi West 10.4 mph - N/A   Clear
10:15 AM 24.8 °F 16.9 °F 17.6 °F 74% 29.99 in 10.0 mi West 6.9 mph - N/A   Clear
10:35 AM 24.8 °F 17.9 °F 17.6 °F 74% 30.00 in 10.0 mi West 5.8 mph - N/A   Clear
10:55 AM 24.8 °F 17.9 °F 17.6 °F 74% 30.00 in 10.0 mi West 5.8 mph - N/A   Clear
11:15 AM 26.6 °F 19.1 °F 17.6 °F 69% 30.00 in 10.0 mi WSW 6.9 mph - N/A   Clear
11:35 AM 26.6 °F 18.2 °F 17.6 °F 69% 30.01 in 10.0 mi West 8.1 mph - N/A   Clear
11:55 AM 26.6 °F 17.5 °F 17.6 °F 69% 30.01 in 10.0 mi NW 9.2 mph - N/A   Clear
12:15 PM 24.8 °F 16.9 °F 15.8 °F 69% 30.02 in 10.0 mi West 6.9 mph - N/A   Clear
12:35 PM 23.0 °F 15.8 °F 15.8 °F 74% 30.01 in 10.0 mi West 5.8 mph - N/A   Clear
12:55 PM 24.8 °F 17.9 °F 15.8 °F 69% 30.01 in 10.0 mi WNW 5.8 mph - N/A   Clear
1:15 PM 24.8 °F 19.1 °F 17.6 °F 74% 30.01 in 10.0 mi NW 4.6 mph - N/A   Clear
1:35 PM 24.8 °F 19.1 °F 17.6 °F 74% 30.02 in 10.0 mi NW 4.6 mph - N/A   Clear
1:55 PM 24.8 °F 16.9 °F 17.6 °F 74% 30.02 in 10.0 mi NW 6.9 mph - N/A   Clear
2:15 PM 24.8 °F 17.9 °F 17.6 °F 74% 30.02 in 10.0 mi NNW 5.8 mph - N/A   Clear
2:35 PM 24.8 °F 17.9 °F 17.6 °F 74% 30.02 in 10.0 mi NNW 5.8 mph - N/A   Clear
2:55 PM 24.8 °F 20.5 °F 17.6 °F 74% 30.03 in 10.0 mi WNW 3.5 mph - N/A   Clear
3:15 PM 24.8 °F 17.9 °F 15.8 °F 69% 30.04 in 10.0 mi West 5.8 mph - N/A   Clear
3:35 PM 23.0 °F 13.9 °F 15.8 °F 74% 30.04 in 10.0 mi West 8.1 mph - N/A   Clear
3:55 PM 23.0 °F 14.7 °F 15.8 °F 74% 30.05 in 10.0 mi WNW 6.9 mph - N/A   Clear
4:15 PM 21.2 °F 12.6 °F 15.8 °F 80% 30.06 in 10.0 mi WNW 6.9 mph - N/A   Clear
4:35 PM 21.2 °F 13.6 °F 15.8 °F 80% 30.06 in 10.0 mi West 5.8 mph - N/A   Clear
7:15 PM 19.4 °F 12.8 °F 15.8 °F 86% 30.08 in 7.0 mi NNW 4.6 mph - N/A   Clear
7:35 PM 17.6 °F 10.7 °F 14.0 °F 86% 30.08 in 6.0 mi NNW 4.6 mph - N/A   Clear
7:55 PM 17.6 °F - 14.0 °F 86% 30.09 in 5.0 mi Calm Calm - N/A   Clear
8:15 PM 17.6 °F - 14.0 °F 86% 30.09 in 5.0 mi Calm Calm - N/A   Clear
8:35 PM 17.6 °F 12.3 °F 14.0 °F 86% 30.09 in 5.0 mi West 3.5 mph - N/A   Clear
8:55 PM 15.8 °F 8.6 °F 12.2 °F 86% 30.09 in 5.0 mi West 4.6 mph - N/A   Clear
9:15 PM 15.8 °F 10.2 °F 12.2 °F 86% 30.09 in 5.0 mi WSW 3.5 mph - N/A   Clear
9:35 PM 15.8 °F - 12.2 °F 86% 30.10 in 4.0 mi Calm Calm - N/A   Clear
9:55 PM 15.8 °F - 12.2 °F 86% 30.11 in 5.0 mi Calm Calm - N/A   Clear
10:15 PM 15.8 °F 10.2 °F 12.2 °F 86% 30.11 in 5.0 mi West 3.5 mph - N/A   Clear
10:35 PM 15.8 °F - 12.2 °F 86% 30.11 in 6.0 mi Calm Calm - N/A   Clear
10:55 PM 15.8 °F 10.2 °F 12.2 °F 86% 30.11 in 5.0 mi WNW 3.5 mph - N/A   Clear
11:15 PM 15.8 °F - 10.4 °F 79% 30.11 in 5.0 mi Calm Calm - N/A   Clear
11:35 PM 15.8 °F - 12.2 °F 86% 30.12 in 5.0 mi Calm Calm - N/A   Clear
11:55 PM 15.8 °F 10.2 °F 12.2 °F 86% 30.11 in 5.0 mi NNW 3.5 mph - N/A   Clear